Location: Sternwarte ZA, Rosenfeld-Brittheim
(48.2889°N, 8.6789°E)
Time: 11:45:30
(UTC+01:00)

ISS - Pass Details

Date: 13 January 2019
Orbit: 404 x 407 km, 51.6° (Epoch: 16 January)

Event Time Altitude Azimuth Distance (km) Brightness Sun altitude
Exits shadow 05:47:22 12° 170° (S) 1,342 -1.0 -23.5°
Drops below altitude 10° 05:47:45 10° 166° (SSE) 1,462 -0.8 -23.4°
Sets 05:50:05 0° 150° (SSE) 2,318 0.5 -23.0°
